EW0158 Weather Reports


Display with metric or nautical units.
time (UTC)temp
F
wind
direction
speed
MPH
gust
MPH
rain 1hr
in
rain 24hr
in
rain mn
in
humidity
%
barometer
mb
20260906062016 77 180 5.0 13.0 0.00 0.00 0.00 69 1016.5
20260906061016 77 180 5.0 9.0 0.00 0.00 0.00 68 1016.7
20260906060016 77 157 4.0 9.0 0.00 0.00 0.00 68 1016.5
20260906055016 78 180 5.0 11.0 0.00 0.00 0.00 67 1016.3
20260906054016 78 180 5.0 12.0 0.00 0.00 0.00 66 1016.2
20260906053016 78 180 6.0 11.0 0.00 0.00 0.00 65 1016.5
20260906052016 79 180 6.0 12.0 0.00 0.00 0.00 64 1016.2
20260906051016 79 180 7.0 13.0 0.00 0.00 0.00 63 1016.1
20260906050016 80 180 6.0 11.0 0.00 0.00 0.00 60 1016.1
20260906045016 80 180 10.0 20.0 0.00 0.00 0.00 61 1016.4
20260906044016 79 157 3.0 5.0 0.00 0.00 0.00 61 1015.9
20260906043016 79 180 2.0 4.0 0.00 0.00 0.00 61 1015.8
20260906042016 78 157 2.0 5.0 0.00 0.00 0.00 62 1015.9
20260906041015 78 157 2.0 3.0 0.00 0.00 0.00 62 1016.1
20260906040016 79 157 2.0 3.0 0.00 0.00 0.00 61 1015.8
20260906035015 79 135 2.0 5.0 0.00 0.00 0.00 60 1015.7
20260906034016 79 157 2.0 4.0 0.00 0.00 0.00 60 1015.8
20260906033016 79 180 2.0 5.0 0.00 0.00 0.00 60 1015.6
20260906032015 79 180 2.0 3.0 0.00 0.00 0.00 60 1015.8
20260906031016 79 157 2.0 3.0 0.00 0.00 0.00 60 1015.7
20260906030017 80 157 1.0 4.0 0.00 0.00 0.00 60 1015.4
20260906025017 80 135 2.0 4.0 0.00 0.00 0.00 60 1015.3
20260906024016 80 135 2.0 4.0 0.00 0.00 0.00 60 1014.6
20260906023016 80 135 2.0 3.0 0.00 0.00 0.00 59 1014.5
20260906022016 80 135 1.0 3.0 0.00 0.00 0.00 59 1014.3
20260906021021 81 135 1.0 2.0 0.00 0.00 0.00 59 1014.3
20260906020015 81 157 1.0 2.0 0.00 0.00 0.00 58 1014.1
20260906014016 83 135 1.0 3.0 0.00 0.00 0.00 56 1013.9
20260906013016 83 157 1.0 2.0 0.00 0.00 0.00 55 1013.9
20260906012016 84 135 1.0 3.0 0.00 0.00 0.00 54 1013.7
20260906011016 84 157 2.0 5.0 0.00 0.00 0.00 54 1013.7
20260906005016 86 135 2.0 5.0 0.00 0.00 0.00 55 1013.7
20260906004016 86 135 2.0 5.0 0.00 0.00 0.00 54 1013.7
20260906003016 86 180 2.0 4.0 0.00 0.00 0.00 54 1013.7
20260906001016 87 180 3.0 5.0 0.00 0.00 0.00 53 1013.4
20260906000016 87 180 5.0 10.0 0.00 0.00 0.00 52 1013.2
20260905235016 88 180 5.0 9.0 0.00 0.00 0.00 53 1013.3
20260905234016 87 202 6.0 11.0 0.00 0.00 0.00 54 1013.5
20260905232016 87 202 7.0 11.0 0.00 0.00 0.00 54 1013.4
20260905231016 87 202 7.0 13.0 0.00 0.00 0.00 55 1013.6
20260905230016 86 202 8.0 13.0 0.00 0.00 0.00 56 1013.3
20260905225016 87 202 10.0 18.0 0.00 0.00 0.00 58 1013.6
20260905224016 87 202 14.0 27.0 0.00 0.00 0.00 56 1013.7
20260905223016 90 202 9.0 15.0 0.00 0.00 0.00 50 1013.6
20260905222016 90 202 8.0 11.0 0.00 0.00 0.00 50 1013.5
20260905221016 90 180 9.0 14.0 0.00 0.00 0.00 49 1013.3
20260905220118 90 202 10.0 14.0 0.00 0.00 0.00 49 1013.5
20260905215016 89 202 8.0 12.0 0.00 0.00 0.00 51 1013.5
20260905214016 87 202 4.0 6.0 0.00 0.00 0.00 58 1013.6
20260905213016 88 202 4.0 6.0 0.00 0.00 0.00 52 1013.6
20260905212017 87 225 3.0 6.0 0.00 0.00 0.00 53 1013.8
20260905211016 87 225 6.0 11.0 0.00 0.00 0.00 53 1013.9
20260905210016 89 247 6.0 12.0 0.00 0.00 0.00 50 1014.0
20260905205016 92 157 5.0 10.0 0.00 0.00 0.00 43 1014.2
20260905204016 92 90 10.0 14.0 0.00 0.00 0.00 42 1014.5
20260905203016 94 112 7.0 12.0 0.00 0.00 0.00 41 1014.8
20260905202016 92 135 6.0 13.0 0.00 0.00 0.00 45 1014.7
20260905201116 91 90 5.0 11.0 0.00 0.00 0.00 43 1014.5
20260905200016 93 90 7.0 11.0 0.00 0.00 0.00 43 1014.8
20260905195016 93 157 4.0 7.0 0.00 0.00 0.00 43 1014.9
20260905194016 92 180 6.0 12.0 0.00 0.00 0.00 44 1015.0
20260905193016 91 90 8.0 15.0 0.00 0.00 0.00 45 1015.5
20260905192016 93 202 7.0 14.0 0.00 0.00 0.00 45 1015.9
20260905191116 93 202 7.0 13.0 0.00 0.00 0.00 46 1016.1
20260905190016 91 135 4.0 10.0 0.00 0.00 0.00 48 1016.2
20260905185016 91 135 7.0 14.0 0.00 0.00 0.00 48 1016.2
20260905184017 90 112 6.0 11.0 0.00 0.00 0.00 48 1016.4
20260905182016 90 90 4.0 11.0 0.00 0.00 0.00 52 1016.6
20260905181016 90 90 7.0 14.0 0.00 0.00 0.00 52 1016.8
20260905180016 90 202 4.0 9.0 0.00 0.00 0.00 53 1017.1
20260905175016 87 202 3.0 6.0 0.00 0.00 0.00 58 1017.1
20260905174016 86 135 3.0 9.0 0.00 0.00 0.00 59 1017.3
20260905171016 85 180 4.0 7.0 0.00 0.00 0.00 60 1017.5
20260905170016 85 180 3.0 7.0 0.00 0.00 0.00 60 1017.4
20260905165016 85 180 4.0 10.0 0.00 0.00 0.00 61 1017.5
20260905164016 86 180 3.0 5.0 0.00 0.00 0.00 61 1017.6
20260905163116 84 202 5.0 12.0 0.00 0.00 0.00 64 1017.2
20260905162016 83 202 6.0 11.0 0.00 0.00 0.00 64 1017.3
20260905161016 83 202 5.0 7.0 0.00 0.00 0.00 65 1017.3
20260905160016 84 202 8.0 14.0 0.00 0.00 0.00 66 1017.4
20260905155016 83 202 7.0 14.0 0.00 0.00 0.00 65 1017.4
20260905154016 82 180 7.0 12.0 0.00 0.00 0.00 67 1017.1
20260905153117 82 180 7.0 13.0 0.00 0.00 0.00 68 1017.2
20260905152016 81 202 6.0 11.0 0.00 0.00 0.00 69 1017.1
20260905151016 81 180 5.0 11.0 0.00 0.00 0.00 71 1017.1
20260905150016 80 180 8.0 15.0 0.00 0.00 0.00 74 1017.1
20260905145016 79 180 6.0 11.0 0.00 0.00 0.00 75 1017.2
20260905143016 78 202 6.0 11.0 0.00 0.00 0.00 78 1017.0
20260905142016 77 202 6.0 11.0 0.00 0.00 0.00 80 1016.9
20260905141016 76 180 6.0 13.0 0.00 0.00 0.00 82 1016.9
20260905140017 76 202 7.0 11.0 0.00 0.00 0.00 84 1017.0
20260905135016 75 180 6.0 13.0 0.00 0.00 0.00 85 1016.7
20260905134016 74 180 8.0 14.0 0.00 0.00 0.00 87 1016.7
20260905133016 73 180 5.0 11.0 0.00 0.00 0.00 88 1016.6
20260905132016 73 180 5.0 10.0 0.00 0.00 0.00 89 1016.5
20260905131016 72 180 4.0 9.0 0.00 0.00 0.00 89 1016.3
20260905125016 72 157 3.0 5.0 0.00 0.00 0.00 90 1016.1
20260905124016 72 180 3.0 6.0 0.00 0.00 0.00 90 1016.1
20260905123016 71 180 3.0 5.0 0.00 0.00 0.00 90 1016.1
20260905122016 71 180 3.0 6.0 0.00 0.00 0.00 90 1016.0
20260905115016 71 157 3.0 6.0 0.00 0.00 0.00 90 1015.6
20260905114016 71 180 4.0 6.0 0.00 0.00 0.00 90 1015.8
20260905113016 71 180 3.0 6.0 0.00 0.00 0.00 89 1015.9
20260905112016 71 180 4.0 7.0 0.00 0.00 0.00 89 1015.8
20260905105017 72 180 3.0 5.0 0.00 0.00 0.00 88 1016.1
20260905104117 71 180 3.0 6.0 0.00 0.00 0.00 88 1016.1
20260905103016 71 157 3.0 7.0 0.00 0.00 0.00 87 1015.9
20260905102117 72 180 2.0 5.0 0.00 0.00 0.00 86 1015.9
20260905101016 72 180 4.0 6.0 0.00 0.00 0.00 86 1015.9
20260905100017 72 157 3.0 5.0 0.00 0.00 0.00 86 1015.8
20260905095016 72 157 3.0 5.0 0.00 0.00 0.00 85 1015.7
20260905093016 72 157 4.0 6.0 0.00 0.00 0.00 85 1015.7
20260905092016 73 180 4.0 10.0 0.00 0.00 0.00 84 1015.9
20260905090016 73 180 4.0 7.0 0.00 0.00 0.00 83 1015.9
20260905085017 73 180 4.0 8.0 0.00 0.00 0.00 82 1015.8
20260905084016 73 180 4.0 7.0 0.00 0.00 0.00 82 1016.1
20260905083016 73 157 4.0 7.0 0.00 0.00 0.00 81 1016.1
20260905082016 73 180 4.0 9.0 0.00 0.00 0.00 80 1016.0
20260905081017 74 157 4.0 7.0 0.00 0.00 0.00 79 1015.9
20260905080016 74 157 4.0 8.0 0.00 0.00 0.00 79 1016.0
20260905075017 74 157 5.0 9.0 0.00 0.00 0.00 78 1016.1
20260905074017 74 180 4.0 10.0 0.00 0.00 0.00 77 1016.1
20260905073016 74 180 4.0 10.0 0.00 0.00 0.00 76 1016.1
20260905072017 74 157 4.0 7.0 0.00 0.00 0.00 76 1016.4
20260905071017 74 157 4.0 8.0 0.00 0.00 0.00 75 1016.4
20260905070017 75 157 4.0 7.0 0.00 0.00 0.00 75 1016.5
20260905065017 75 157 4.0 7.0 0.00 0.00 0.00 74 1016.4
20260905064017 75 157 4.0 9.0 0.00 0.00 0.00 74 1016.6
20260905063017 75 157 5.0 11.0 0.00 0.00 0.00 74 1016.6